Regional Weather Roundup
Issued by NWS

Home | Current Version | Previous Version | Graphics & Text | Print | Product List | Glossary Off
Versions: 1 2 3 4 5 6 7 8 9 10 11 12 13 14 15 16 17 18 19 20 21 22 23 24 25 26 27 28 29 30 31 32 33 34 35 36 37 38 39 40 41 42 43 44 45 46 47 48 49 50

363
ASUS43 KTOP 182259
RWRKS

WEATHER ROUNDUP FOR KANSAS
NATIONAL WEATHER SERVICE GOODLAND KS
500 PM CST WED JAN 18 2017

NOTE:  "FAIR" INDICATES FEW OR NO CLOUDS BELOW 12,000 FEET WITH NO
SIGNIFICANT WEATHER AND/OR OBSTRUCTIONS TO VISIBILITY.

KSZ001>006-013>018-027>032-041>047-190000-
NORTHWEST KANSAS

CITY           SKY/WX    TMP DP  RH WIND       PRES   REMARKS
GOODLAND       CLEAR     43  36  76 S17       29.78F
HAYS           CLEAR     53  42  66 S10       29.87S
HILL CITY        N/A     52  43  71 SW8       29.85F
$$

KSZ061>065-074>080-084>089-190000-
SOUTHWEST KANSAS

CITY           SKY/WX    TMP DP  RH WIND       PRES   REMARKS
DODGE CITY     CLEAR     54  41  61 S18       29.86S
ELKHART          N/A    N/A N/A N/A MISG        N/A
GARDEN CITY    PTCLDY    51  40  65 S14       29.85R
GREAT BEND     CLEAR     53  42  66 S15       29.88R
LIBERAL        CLEAR     57  41  54 S14       29.83F
$$

KSZ066>073-081>083-090>101-190000-
SOUTHEAST KANSAS

CITY           SKY/WX    TMP DP  RH WIND       PRES   REMARKS
CHANUTE        CLOUDY    48  41  76 SE6       30.01S
COFFEYVILLE    CLOUDY    51  41  68 S5        30.02F
HUTCHINSON     CLEAR     52  36  54 S16       29.92F
MEDICINE LODGE   N/A     53  42  66 S12G21    29.91F
NEWTON         CLEAR     50  41  71 S12       29.94F
PARSONS        CLOUDY    49  40  71 SE5       30.02F
WICHITA INTL   MOCLDY    52  40  63 S14       29.94F
WICHITA JABRA  MOCLDY    50  39  66 S12       29.95F
WINFIELD       CLOUDY    51  37  58 SE9       29.98F
$$

KSZ007>012-019>026-033>040-048>060-102>105-190000-
NORTHEAST KANSAS

CITY           SKY/WX    TMP DP  RH WIND       PRES   REMARKS
CONCORDIA      CLEAR     51  39  63 S6        29.89F
EMPORIA        CLEAR     50  35  56 S9        29.96F
LAWRENCE       CLEAR     47  38  71 E8        30.00S
MANHATTAN      CLEAR     54  32  43 SW8       29.94S
OLATHE IND     CLEAR     46  38  73 SE9       30.00F
OLATHE EXE     CLEAR     44  39  82 S8        30.00F
SALINA         CLEAR     54  37  52 S16       29.91F
TOPEKA BILLARD CLEAR     51  38  60 SE6       29.97F
TOPEKA FORBES  CLEAR     51  36  56 SE10      29.97S
$$




USA.gov is the U.S. government's official web portal to all federal, state and local government web resources and services.